Location: ?????
(38.3715°N, 23.0573°E)
Time: 10:48:23
(UTC+00:00)

Okean O Rocket - Pass Details

Date: 03 August 2024
Orbit: 617 x 638 km, 98.1° (Epoch: 18 September)

Event Time Altitude Azimuth Distance (km) Brightness Sun altitude
Exits shadow 19:48:16 - 217° (SW) 2,443 4.5 -22.2°
Reaches altitude 10° 19:49:59 10° 233° (SW) 1,984 4.2 -22.4°
Maximum altitude 19:52:25 15° 268° (W) 1,694 4.3 -22.8°
Drops below altitude 10° 19:54:53 10° 302° (WNW) 1,999 5.2 -23.1°
Sets 19:58:00 0° 326° (NNW) 2,917 6.4 -23.5°
